sat.trackr.live / text

‹ back to catalog

STARLINK-3770

NORAD 52554 · 2022-051X

PAYLOAD ACTIVE UNKNOWN

§ Identity

Operator
Country
US
Launch date
2022-05-13
Launch site
AFWTR
Launch vehicle
Mass (kg)
RCS (m²)

Purposes: comms

External: N2YO · Heavens-Above · Gunter

§ Orbital elements

Epoch: 2026-09-19T17:07:21.165888Z

Period
94.01 min
Inclination
53.1613°
Eccentricity
0.0001070
Mean motion
15.31705375 rev/d
Perigee alt
470.0 km
Apogee alt
471.5 km
Semi-major
6,848.9 km
B*
-2.2440e-7
RAAN
337.4336°
Arg perigee
83.5396°
Mean anomaly
276.5727°
Rev number
24,073

§ Raw data

STARLINK-37701 52554U 22051X   26262.71343942 -.00000372  00000+0 -22440-6 0  99932 52554  53.1613 337.4336 0001070  83.5396 276.5727 15.31705375240732

JSON: /api/v1/satellites/52554 · /tle

For live sub-satellite position, see the globe view (requires WebGL).

§ Visibility from observer

Set your observer location to see the next 7 days of passes ≥ 10°. The values pass through the URL so the page stays shareable.

No JS? Fill the form by hand. The geolocation button needs JavaScript.